CW9181 Weather Reports


Display with metric or nautical units.
time (UTC)temp
F
wind
direction
speed
MPH
gust
MPH
rain 1hr
in
rain 24hr
in
rain mn
in
humidity
%
barometer
mb
20260507122807 56 146 0.0 2.0 0.00 0.00 0.00 88 1018.1
20260507121829 56 131 1.0 3.0 0.00 0.00 0.00 88 1018.0
20260507120812 56 131 1.0 3.0 0.00 0.00 0.00 88 1018.0
20260507115813 56 140 0.0 2.0 0.00 0.00 0.00 87 1018.1
20260507114818 56 137 1.0 4.0 0.00 0.00 0.00 87 1018.2
20260507113801 57 141 2.0 5.0 0.00 0.00 0.00 87 1018.1
20260507112802 57 112 2.0 5.0 0.00 0.00 0.00 87 1018.1
20260507111805 57 117 3.0 5.0 0.00 0.00 0.00 87 1018.1
20260507110809 57 128 1.0 5.0 0.00 0.00 0.00 87 1018.1
20260507105831 57 175 2.0 5.0 0.00 0.00 0.00 87 1018.0
20260507104833 57 116 1.0 3.0 0.00 0.00 0.00 86 1018.0
20260507103814 57 132 0.0 4.0 0.00 0.00 0.00 86 1018.0
20260507102813 57 133 2.0 5.0 0.00 0.00 0.00 86 1018.0
20260507101818 57 138 1.0 4.0 0.00 0.00 0.00 86 1018.0
20260507100802 57 120 0.0 0.0 0.00 0.00 0.00 86 1018.1
20260507095801 58 137 0.0 0.0 0.00 0.00 0.00 86 1018.1
20260507094802 58 118 0.0 4.0 0.00 0.00 0.00 86 1018.1
20260507093801 58 138 1.0 3.0 0.00 0.00 0.00 86 1018.2
20260507092821 58 147 1.0 4.0 0.00 0.00 0.00 86 1018.1
20260507091800 59 151 2.0 4.0 0.00 0.00 0.00 86 1018.2
20260507090839 59 128 0.0 3.0 0.00 0.00 0.00 86 1018.3
20260507085814 59 150 2.0 5.0 0.00 0.00 0.00 85 1018.2
20260507084836 60 122 2.0 4.0 0.00 0.00 0.00 85 1018.3
20260507083820 60 143 1.0 5.0 0.00 0.00 0.00 84 1018.2
20260507082813 60 150 2.0 5.0 0.00 0.00 0.00 84 1018.3
20260507081815 60 165 1.0 7.0 0.00 0.00 0.00 84 1018.2
20260507080814 60 150 2.0 6.0 0.00 0.00 0.00 84 1018.2
20260507075817 61 149 3.0 7.0 0.00 0.00 0.00 84 1018.1
20260507074823 61 145 1.0 4.0 0.00 0.00 0.00 83 1018.2
20260507073807 61 138 3.0 7.0 0.00 0.00 0.00 83 1018.3
20260507072811 62 142 3.0 7.0 0.00 0.00 0.00 83 1018.2
20260507071814 62 114 3.0 5.0 0.00 0.00 0.00 82 1018.1
20260507070807 62 118 3.0 5.0 0.00 0.00 0.00 81 1018.2
20260507065811 62 146 2.0 5.0 0.00 0.00 0.00 80 1018.3
20260507064822 63 122 2.0 5.0 0.00 0.00 0.00 79 1018.1
20260507063804 63 132 3.0 5.0 0.00 0.00 0.00 79 1018.1
20260507062801 63 114 4.0 6.0 0.00 0.00 0.00 79 1018.1
20260507061841 64 126 2.0 5.0 0.00 0.00 0.00 79 1018.0
20260507060819 64 134 2.0 3.0 0.00 0.00 0.00 78 1018.0
20260507055814 64 112 1.0 4.0 0.00 0.00 0.00 78 1017.9
20260507054832 64 127 2.0 3.0 0.00 0.00 0.00 77 1017.8
20260507053806 65 183 2.0 6.0 0.00 0.00 0.00 76 1017.9
20260507052819 65 172 1.0 4.0 0.00 0.00 0.00 76 1017.9
20260507051802 66 171 2.0 4.0 0.00 0.00 0.00 75 1017.9
20260507050801 66 236 1.0 8.0 0.00 0.00 0.00 75 1017.9
20260507045817 66 171 0.0 8.0 0.00 0.00 0.00 75 1017.8
20260507044818 67 203 2.0 7.0 0.00 0.00 0.00 74 1017.7
20260507043816 67 169 2.0 9.0 0.00 0.00 0.00 73 1017.6
20260507042812 67 202 4.0 8.0 0.00 0.00 0.00 73 1017.6
20260507041811 67 205 1.0 3.0 0.00 0.00 0.00 72 1017.5
20260507040831 68 120 0.0 0.0 0.00 0.00 0.00 71 1017.2
20260507035808 68 120 0.0 0.0 0.00 0.00 0.00 70 1017.1
20260507034829 69 121 0.0 4.0 0.00 0.00 0.00 69 1017.0
20260507033829 69 117 0.0 0.0 0.00 0.00 0.00 68 1017.0
20260507032824 70 110 0.0 0.0 0.00 0.00 0.00 67 1016.9
20260507031823 70 93 0.0 0.0 0.00 0.00 0.00 65 1016.8
20260507030819 71 306 0.0 0.0 0.00 0.00 0.00 64 1016.9
20260507025819 72 306 0.0 0.0 0.00 0.00 0.00 61 1016.7
20260507024804 73 306 0.0 0.0 0.00 0.00 0.00 60 1016.8
20260507023807 73 306 0.0 0.0 0.00 0.00 0.00 58 1016.7
20260507022807 74 306 0.0 0.0 0.00 0.00 0.00 57 1016.7
20260507021807 74 306 0.0 3.0 0.00 0.00 0.00 56 1016.7
20260507020807 75 289 1.0 3.0 0.00 0.00 0.00 56 1016.8
20260507015808 75 340 0.0 1.0 0.00 0.00 0.00 56 1016.7
20260507014811 75 341 1.0 3.0 0.00 0.00 0.00 55 1016.8
20260507013811 76 295 2.0 4.0 0.00 0.00 0.00 55 1016.8
20260507012809 76 303 1.0 4.0 0.00 0.00 0.00 55 1016.8
20260507011813 76 260 0.0 4.0 0.00 0.00 0.00 54 1016.8
20260507010815 76 339 3.0 5.0 0.00 0.00 0.00 55 1016.8
20260507005841 76 253 2.0 5.0 0.00 0.00 0.00 54 1016.8
20260507004801 76 8 1.0 4.0 0.00 0.00 0.00 56 1016.9
20260507003803 75 265 2.0 9.0 0.00 0.00 0.00 54 1017.0
20260507002819 75 302 0.0 6.0 0.00 0.00 0.00 56 1016.9
20260507001804 75 357 3.0 10.0 0.00 0.00 0.00 57 1016.9
20260507000807 75 205 3.0 8.0 0.00 0.00 0.00 56 1017.1
20260506235802 76 341 4.0 9.0 0.00 0.00 0.00 55 1017.1
20260506234804 76 260 3.0 8.0 0.00 0.00 0.00 55 1017.1
20260506233806 75 290 5.0 7.0 0.00 0.00 0.00 56 1017.2
20260506232804 75 316 3.0 10.0 0.00 0.00 0.00 54 1017.3
20260506231805 76 336 3.0 8.0 0.00 0.00 0.00 56 1017.4
20260506230825 74 326 4.0 10.0 0.00 0.00 0.00 56 1017.6
20260506225819 76 255 4.0 11.0 0.00 0.00 0.00 55 1017.8
20260506224800 75 134 1.0 8.0 0.00 0.00 0.00 56 1017.9
20260506223802 75 75 5.0 11.0 0.00 0.00 0.00 55 1018.0
20260506222818 74 41 3.0 8.0 0.00 0.00 0.00 55 1018.1
20260506221804 74 107 1.0 12.0 0.00 0.00 0.00 56 1018.3
20260506220805 73 260 1.0 10.0 0.00 0.00 0.00 56 1018.5
20260506215802 74 8 6.0 11.0 0.00 0.00 0.00 57 1018.5
20260506214806 73 327 4.0 10.0 0.00 0.00 0.00 57 1018.7
20260506213811 73 314 3.0 10.0 0.00 0.00 0.00 59 1018.7
20260506212812 73 270 3.0 10.0 0.00 0.00 0.00 58 1018.9
20260506211812 73 22 1.0 10.0 0.00 0.00 0.00 56 1018.9
20260506210815 72 291 3.0 8.0 0.00 0.00 0.00 60 1019.1
20260506205817 72 251 4.0 8.0 0.00 0.00 0.00 57 1019.3
20260506204818 72 51 2.0 8.0 0.00 0.00 0.00 57 1019.3
20260506203801 73 344 2.0 9.0 0.00 0.00 0.00 60 1019.6
20260506202808 71 193 1.0 6.0 0.00 0.00 0.00 58 1019.6
20260506201808 71 68 1.0 4.0 0.00 0.00 0.00 60 1019.7
20260506200812 70 325 1.0 5.0 0.00 0.00 0.00 62 1019.8
20260506195814 70 230 3.0 5.0 0.00 0.00 0.00 61 1019.8
20260506194817 70 21 3.0 9.0 0.00 0.00 0.00 61 1019.8
20260506193818 70 353 3.0 6.0 0.00 0.00 0.00 61 1020.1
20260506192820 69 265 3.0 5.0 0.00 0.00 0.00 62 1020.3
20260506191803 69 11 1.0 6.0 0.00 0.00 0.00 65 1020.3
20260506190803 69 239 3.0 7.0 0.00 0.00 0.00 63 1020.4
20260506185805 69 347 3.0 6.0 0.00 0.00 0.00 65 1020.4
20260506184810 69 299 2.0 6.0 0.00 0.00 0.00 65 1020.6
20260506183806 68 146 1.0 5.0 0.00 0.00 0.00 64 1020.6
20260506182807 69 321 1.0 6.0 0.00 0.00 0.00 65 1020.7
20260506181806 67 109 1.0 3.0 0.00 0.00 0.00 68 1020.7
20260506180801 66 154 2.0 4.0 0.00 0.00 0.00 68 1020.7
20260506175826 66 187 1.0 5.0 0.00 0.00 0.00 68 1020.7
20260506174804 66 246 1.0 5.0 0.00 0.00 0.00 71 1020.6
20260506173818 65 296 1.0 3.0 0.00 0.00 0.00 72 1020.6
20260506172803 64 253 2.0 3.0 0.00 0.00 0.00 73 1020.6
20260506171825 64 184 0.0 3.0 0.00 0.00 0.00 72 1020.7
20260506170802 63 124 1.0 3.0 0.00 0.00 0.00 74 1020.7
20260506165803 63 282 2.0 3.0 0.00 0.00 0.00 76 1020.6
20260506164825 62 178 1.0 4.0 0.00 0.00 0.00 76 1020.6
20260506163804 62 353 1.0 3.0 0.00 0.00 0.00 76 1020.6
20260506162826 61 195 1.0 4.0 0.00 0.00 0.00 76 1020.6
20260506161810 61 176 2.0 3.0 0.00 0.00 0.00 76 1020.6
20260506160805 61 172 2.0 4.0 0.00 0.00 0.00 77 1020.6
20260506155807 60 193 3.0 4.0 0.00 0.00 0.00 78 1020.5
20260506154808 60 196 2.0 5.0 0.00 0.00 0.00 78 1020.6
20260506153824 60 176 2.0 4.0 0.00 0.00 0.00 79 1020.5
20260506152806 59 136 1.0 4.0 0.00 0.00 0.00 79 1020.5
20260506151807 59 118 3.0 5.0 0.00 0.00 0.00 80 1020.4
20260506150811 59 181 1.0 3.0 0.00 0.00 0.00 81 1020.5
20260506145811 59 151 2.0 5.0 0.00 0.00 0.00 81 1020.4
20260506144816 58 199 2.0 4.0 0.00 0.00 0.00 81 1020.4
20260506143819 58 199 2.0 6.0 0.00 0.00 0.00 82 1020.4
20260506142818 58 178 2.0 4.0 0.00 0.00 0.00 82 1020.5
20260506141801 58 189 1.0 4.0 0.00 0.00 0.00 82 1020.4
20260506140807 58 201 0.0 3.0 0.00 0.00 0.00 82 1020.3
20260506135806 58 153 0.0 3.0 0.00 0.00 0.00 82 1020.1
20260506134808 58 164 1.0 4.0 0.00 0.00 0.00 82 1020.0
20260506133812 58 182 3.0 4.0 0.00 0.00 0.00 82 1019.8
20260506132815 58 135 0.0 6.0 0.00 0.00 0.00 82 1019.8
20260506131815 58 128 2.0 4.0 0.00 0.00 0.00 82 1019.8
20260506130800 57 163 1.0 4.0 0.00 0.00 0.00 82 1019.8
20260506125801 57 137 2.0 5.0 0.00 0.00 0.00 82 1019.8
20260506124817 57 124 1.0 4.0 0.00 0.00 0.00 82 1019.8
20260506123804 57 141 1.0 6.0 0.00 0.00 0.00 82 1019.7